Date String (YYYY-MM-DD hh:mm:ss) UTC,Instrument flags,Ambient pressure (hPa),Sample flow (lpm),Bypass flow (lpm),Sample temperature (°C),Ambient temperature (°C),ASC tube jacket temperature (°C),LED temperature (°C),Box temperature (°C),Sample RH (%),Span deviation,Mass concentration (μg/m³),Mass concentration (μg/m³),Mass concentration (μg/m³)
DateTimeUTC,F1_M11,P_M11,Q1_M11,Q2_M11,T1_M11,T2_M11,T3_M11,T4_M11,T5_M11,U1_M11,ZSPAN_M11,X0_M11,X2_M11,X1_M11
2021-09-12 21:00:00,,0829.8,5.01,0.00,29.0,25.7,00.0,38.1,30.4,25.3,0001.4,0013.48,0005.78,0004.81
2021-09-12 21:01:00,,0829.8,5.00,0.00,29.0,26.1,00.0,38.1,30.6,25.5,0001.8,0013.51,0005.82,0004.81
2021-09-12 21:02:00,,0829.8,5.01,0.00,29.0,26.5,00.0,38.1,30.7,25.6,0002.0,0013.46,0005.82,0004.80
2021-09-12 21:03:00,,0829.8,4.99,0.00,29.0,26.9,00.0,38.0,30.8,25.6,0001.8,0013.87,0005.83,0004.80
2021-09-12 21:04:00,,0829.8,5.01,0.00,29.0,27.4,00.0,38.0,30.9,25.1,0002.0,0012.56,0005.79,0004.79
2021-09-12 21:05:00,,0829.8,5.00,0.00,29.1,27.7,00.0,38.1,31.0,24.9,0002.1,0012.58,0005.78,0004.78
2021-09-12 21:06:00,,0829.8,5.01,0.00,29.1,28.0,00.0,38.1,31.1,24.7,0001.7,0012.62,0005.77,0004.77
2021-09-12 21:07:00,,0829.8,4.99,0.00,29.2,28.2,00.0,38.1,31.1,24.7,0001.1,0012.72,0005.82,0004.78
2021-09-12 21:08:00,,0829.7,5.01,0.00,29.3,28.4,00.0,38.1,31.2,24.7,0000.8,0012.89,0005.82,0004.77
2021-09-12 21:09:00,,0829.8,5.01,0.00,29.3,28.6,00.0,38.2,31.3,25.1,0000.9,0012.87,0005.79,0004.75
2021-09-12 21:10:00,,0829.7,4.99,0.00,29.4,28.7,00.0,38.2,31.3,25.1,0001.1,0012.73,0005.80,0004.76
2021-09-12 21:11:00,,0829.7,4.99,0.00,29.4,27.6,00.0,38.2,31.1,24.8,0000.8,0012.35,0005.82,0004.76
2021-09-12 21:12:00,,0829.6,5.01,0.00,29.2,26.0,00.0,38.2,30.6,25.0,0000.5,0011.57,0005.82,0004.78
2021-09-12 21:13:00,,0829.7,5.01,0.00,29.1,25.9,00.0,38.2,30.6,25.3,0000.6,0011.33,0005.81,0004.78
2021-09-12 21:14:00,,0829.6,4.99,0.00,29.1,26.3,00.0,38.2,30.7,26.0,0000.4,0010.48,0005.84,0004.79
2021-09-12 21:15:00,,0829.7,5.00,0.00,29.1,26.7,00.0,38.2,30.8,26.1,0000.7,0011.06,0005.88,0004.81
2021-09-12 21:16:00,,0829.8,4.99,0.00,29.1,27.2,00.0,38.1,30.9,26.1,0000.8,0011.23,0005.86,0004.82
2021-09-12 21:17:00,,0829.8,5.00,0.00,29.1,27.6,00.0,38.1,31.0,25.9,0000.0,0011.27,0005.88,0004.82
2021-09-12 21:18:00,,0829.8,5.00,0.00,29.2,27.9,00.0,38.2,31.1,25.3,0000.9,0011.33,0005.88,0004.81
2021-09-12 21:19:00,,0829.9,5.01,0.00,29.2,28.1,00.0,38.2,31.2,25.2,0000.6,0011.36,0005.88,0004.82
2021-09-12 21:20:00,,0829.9,4.98,0.00,29.3,28.4,00.0,38.2,31.2,25.3,0000.0,0012.11,0005.90,0004.83
2021-09-12 21:21:00,,0829.9,5.01,0.00,29.4,28.5,00.0,38.2,31.3,25.1,0000.0,0012.12,0005.89,0004.82
2021-09-12 21:22:00,,0830.0,4.99,0.00,29.4,28.5,00.0,38.3,31.3,25.0,0000.0,0012.85,0005.90,0004.82
2021-09-12 21:23:00,,0829.8,5.00,0.00,29.4,27.0,00.0,38.3,30.9,25.0,0000.0,0012.78,0005.88,0004.82
2021-09-12 21:24:00,,0829.9,5.00,0.00,29.2,25.8,00.0,38.3,30.6,25.1,0000.0,0012.90,0005.88,0004.82
2021-09-12 21:25:00,,0830.0,5.01,0.00,29.1,26.0,00.0,38.3,30.6,25.4,0000.0,0012.92,0005.89,0004.81
2021-09-12 21:26:00,,0830.1,5.00,0.00,29.1,26.4,00.0,38.2,30.7,25.2,0000.0,0012.55,0005.89,0004.81
2021-09-12 21:27:00,,0830.1,4.99,0.00,29.1,26.9,00.0,38.2,30.8,25.1,0000.0,0012.89,0005.90,0004.81
2021-09-12 21:28:00,,0830.1,5.01,0.00,29.1,27.3,00.0,38.2,30.9,25.1,0000.0,0013.69,0005.96,0004.80
2021-09-12 21:29:00,,0830.1,4.99,0.00,29.2,27.6,00.0,38.2,31.0,25.0,0000.0,0013.88,0005.99,0004.80
2021-09-12 21:30:00,,0830.2,5.00,0.00,29.2,27.9,00.0,38.2,31.1,25.1,0000.1,0013.69,0005.98,0004.80
2021-09-12 21:31:00,,0830.3,5.00,0.00,29.3,28.2,00.0,38.2,31.2,24.7,0002.4,0012.74,0005.95,0004.80
2021-09-12 21:32:00,,0830.3,5.00,0.00,29.3,28.4,00.0,38.2,31.3,24.8,0002.5,0012.63,0005.90,0004.78
2021-09-12 21:33:00,,0830.4,4.99,0.00,29.4,28.6,00.0,38.3,31.3,25.1,0001.2,0012.08,0005.90,0004.77
2021-09-12 21:34:00,,0830.4,5.01,0.00,29.4,28.3,00.0,38.3,31.3,26.4,0002.0,0012.16,0005.92,0004.75
2021-09-12 21:35:00,,0830.5,4.99,0.00,29.4,26.5,00.0,38.3,30.8,27.3,0001.6,0013.44,0005.93,0004.74
2021-09-12 21:36:00,,0830.4,5.00,0.00,29.2,25.6,00.0,38.3,30.6,28.7,0000.8,0013.70,0005.92,0004.73
2021-09-12 21:37:00,,0830.4,5.01,0.00,29.1,26.0,00.0,38.3,30.6,29.5,0000.6,0014.36,0005.90,0004.72
2021-09-12 21:38:00,,0830.5,4.99,0.00,29.1,26.4,00.0,38.2,30.7,30.3,0000.0,0014.30,0005.88,0004.69
2021-09-12 21:39:00,,0830.5,4.99,0.00,29.1,26.9,00.0,38.2,30.8,31.3,0000.0,0014.48,0005.84,0004.69
2021-09-12 21:40:00,,0830.5,5.01,0.00,29.1,27.3,00.0,38.2,30.9,30.3,-000.1,0014.38,0005.81,0004.69
2021-09-12 21:41:00,,0830.5,4.99,0.00,29.2,27.6,00.0,38.2,31.0,31.7,-000.2,0015.91,0005.90,0004.69
2021-09-12 21:42:00,,0830.5,5.02,0.00,29.2,27.9,00.0,38.2,31.1,31.8,0000.1,0017.30,0006.05,0004.72
2021-09-12 21:43:00,,0830.6,4.99,0.00,29.2,28.1,00.0,38.2,31.1,30.2,0000.2,0017.69,0006.10,0004.74
2021-09-12 21:44:00,,0830.6,4.99,0.00,29.3,28.3,00.0,38.3,31.2,31.7,0000.8,0017.72,0006.14,0004.74
2021-09-12 21:45:00,,0830.6,5.01,0.00,29.3,28.4,00.0,38.3,31.2,32.9,0001.1,0017.86,0006.23,0004.75
2021-09-12 21:46:00,,0830.6,4.99,0.00,29.4,28.3,00.0,38.3,31.2,32.1,0001.3,0017.07,0006.28,0004.77
2021-09-12 21:47:00,,0830.6,5.00,0.00,29.3,26.7,00.0,38.3,30.8,32.8,0001.5,0016.76,0006.29,0004.77
2021-09-12 21:48:00,,0830.6,4.99,0.00,29.1,25.4,00.0,38.3,30.4,34.1,0001.4,0016.11,0006.26,0004.75
2021-09-12 21:49:00,,0830.6,5.02,0.00,29.0,25.4,00.0,38.2,30.4,34.2,0001.2,0015.83,0006.31,0004.76
2021-09-12 21:50:00,,0830.6,4.99,0.00,28.9,25.9,00.0,38.2,30.5,34.5,0001.4,0015.16,0006.35,0004.77
2021-09-12 21:51:00,,0830.5,5.01,0.00,29.0,26.4,00.0,38.2,30.6,35.5,0001.4,0015.38,0006.40,0004.78
2021-09-12 21:52:00,,0830.4,5.00,0.00,29.3,26.8,00.0,38.1,30.9,35.0,0001.2,0014.18,0006.35,0004.78
2021-09-12 21:53:00,,0830.4,4.99,0.00,29.6,27.2,00.0,38.1,31.1,33.8,0001.3,0013.15,0006.28,0004.75
2021-09-12 21:54:00,,0830.4,5.00,0.00,29.8,27.6,00.0,38.2,31.2,33.3,0001.4,0012.46,0006.24,0004.74
2021-09-12 21:55:00,,0830.3,5.01,0.00,29.9,27.9,00.0,38.2,31.2,33.5,0001.3,0012.50,0006.24,0004.75
2021-09-12 21:56:00,,0830.3,4.99,0.00,30.0,28.1,00.0,38.3,31.2,35.3,0000.8,0012.20,0006.14,0004.74
2021-09-12 21:57:00,,0830.3,5.00,0.00,30.2,28.3,00.0,38.4,31.4,34.3,0000.9,0012.08,0006.16,0004.74
2021-09-12 21:58:00,,0830.3,5.00,0.00,30.5,28.5,00.0,38.4,31.6,32.0,0001.2,0011.71,0006.11,0004.73
2021-09-12 21:59:00,,0830.2,5.01,0.00,30.6,28.6,00.0,38.5,31.6,32.1,0001.3,0011.73,0006.12,0004.74
